Change the Weather History Date:

Sunday, March 24, 2013

  Actual Average Record
Temperature  
Mean Temperature 34 °F -  
Max Temperature 43 °F 61 °F 81 °F (2003)
Min Temperature 26 °F 40 °F 25 °F (2006)
Degree Days  
Heating Degree Days 31    
Moisture  
Dew Point 20 °F    
Average Humidity 64    
Maximum Humidity 93    
Minimum Humidity 35    
Precipitation  
Precipitation 0.00 in - - ()
Sea Level Pressure  
Sea Level Pressure 30.15 in    
Wind  
Wind Speed 21 mph (NNW)    
Max Wind Speed 29 mph    
Max Gust Speed 41 mph    
Visibility 10 miles    
Events      
Averages and records for this station are not official NWS values.
T = Trace of Precipitation, MM = Missing Value Source: NWS Daily Summary

Daily Weather History Graph

Daily Weather History Graph

Search for Another Location

Airport or City:

Trip Planner

Search our weather history database for the weather conditions in past years. The results will help you decide how hot, cold, wet, or windy it might be!

Date:

Astronomy

Mar. 24, 2013 Rise Set
Actual Time 7:34 AM CDT 7:52 PM CDT
Civil Twilight 7:08 AM CDT 8:17 PM CDT
Nautical Twilight 6:39 AM CDT 8:47 PM CDT
Astronomical Twilight 6:09 AM CDT 9:17 PM CDT
Moon 5:26 PM CDT (3/24) 5:40 AM CDT (3/24)
Length of Visible Light 13h 08m
Length of Day
12h 17m
Waxing Gibbous, 92% of the Moon is Illuminated
Mar 24
Waxing Gibbous
Mar 27
Full
Apr 2
Last Quarter
Apr 10
New
Apr 18
First Quarter

Hourly Weather History & Observations

Time (CDT) Temp. Windchill Dew Point Humidity Pressure Visibility Wind Dir Wind Speed Gust Speed Precip Events Conditions
12:00 AM 32.0 °F 20.1 °F 28.4 °F 87% 29.99 in 10.0 mi NW 19.6 mph 28.8 mph N/A   Overcast
12:27 AM 30.2 °F 16.5 °F 28.4 °F 93% 29.99 in 10.0 mi NNW 24.2 mph 34.5 mph 0.00 in   Overcast
12:44 AM 30.2 °F 17.8 °F 28.4 °F 93% 29.99 in 9.0 mi NNW 19.6 mph 29.9 mph 0.00 in   Overcast
12:53 AM 30.9 °F 17.5 °F 28.0 °F 89% 30.02 in 10.0 mi NW 24.2 mph 29.9 mph 0.00 in   Overcast
1:53 AM 30.9 °F 16.9 °F 27.0 °F 85% 30.04 in 10.0 mi NNW 26.5 mph 34.5 mph N/A   Overcast
2:53 AM 30.9 °F 17.2 °F 25.0 °F 79% 30.06 in 10.0 mi NNW 25.3 mph 38.0 mph N/A   Overcast
3:53 AM 30.0 °F 15.2 °F 23.0 °F 75% 30.06 in 10.0 mi NNW 28.8 mph 41.4 mph N/A   Overcast
4:53 AM 28.0 °F 12.8 °F 21.9 °F 78% 30.07 in 10.0 mi NNW 27.6 mph 32.2 mph N/A   Mostly Cloudy
5:53 AM 28.0 °F 12.8 °F 21.9 °F 78% 30.09 in 10.0 mi NNW 27.6 mph 34.5 mph N/A   Overcast
6:53 AM 28.0 °F 13.6 °F 21.0 °F 75% 30.13 in 10.0 mi NNW 24.2 mph 28.8 mph N/A   Overcast
7:53 AM 26.1 °F 12.0 °F 19.9 °F 78% 30.18 in 10.0 mi NNW 20.7 mph 28.8 mph N/A   Mostly Cloudy
8:53 AM 27.0 °F 12.2 °F 19.0 °F 72% 30.21 in 10.0 mi NNW 24.2 mph 32.2 mph N/A   Overcast
9:53 AM 28.0 °F 13.3 °F 18.0 °F 66% 30.23 in 10.0 mi NNW 25.3 mph 34.5 mph N/A   Mostly Cloudy
10:17 AM 30.2 °F 15.9 °F 17.6 °F 60% 30.19 in 10.0 mi NNW 26.5 mph 33.4 mph N/A   Scattered Clouds
10:53 AM 32.0 °F 19.5 °F 18.0 °F 56% 30.23 in 10.0 mi North 21.9 mph 32.2 mph N/A   Clear
11:53 AM 35.1 °F 23.0 °F 17.1 °F 48% 30.22 in 10.0 mi North 24.2 mph 33.4 mph N/A   Clear
12:53 PM 37.0 °F 26.2 °F 16.0 °F 42% 30.21 in 10.0 mi North 21.9 mph 34.5 mph N/A   Clear
1:53 PM 39.9 °F 29.5 °F 17.1 °F 40% 30.19 in 10.0 mi NNW 24.2 mph 32.2 mph N/A   Clear
2:53 PM 41.0 °F 32.8 °F 17.1 °F 38% 30.18 in 10.0 mi NNW 16.1 mph 29.9 mph N/A   Clear
3:53 PM 42.1 °F 33.3 °F 16.0 °F 35% 30.17 in 10.0 mi NNW 19.6 mph 26.5 mph N/A   Clear
4:53 PM 42.1 °F 34.5 °F 17.1 °F 37% 30.17 in 10.0 mi North 15.0 mph - N/A   Clear
5:53 PM 41.0 °F 32.2 °F 16.0 °F 36% 30.18 in 10.0 mi North 18.4 mph 23.0 mph N/A   Clear
7:53 PM 35.1 °F 27.9 °F 15.1 °F 44% 30.21 in 10.0 mi North 9.2 mph - N/A   Clear
8:53 PM 28.0 °F 19.3 °F 16.0 °F 61% 30.23 in 10.0 mi North 9.2 mph - N/A   Clear
9:53 PM 30.9 °F 22.8 °F 17.1 °F 57% 30.25 in 10.0 mi North 9.2 mph - N/A   Clear
10:53 PM 30.9 °F 24.3 °F 19.0 °F 61% 30.26 in 10.0 mi NNW 6.9 mph - N/A   Mostly Cloudy
11:53 PM 32.0 °F 25.6 °F 19.9 °F 61% 30.26 in 10.0 mi North 6.9 mph - N/A   Overcast